EW7070 Weather Reports


Display with metric or nautical units.
time (UTC)temp
F
wind
direction
speed
MPH
gust
MPH
rain 1hr
in
rain 24hr
in
rain mn
in
humidity
%
barometer
mb
20260510063323 51 319 2.0 7.0 0.00 0.00 0.00 78 1021.0
20260510062559 51 17 1.0 4.0 0.00 0.00 0.00 79 1021.2
20260510062552 51 355 2.0 7.0 0.00 0.00 0.00 79 1021.1
20260510061530 51 357 1.0 3.0 0.00 0.00 0.00 79 1021.2
20260510061030 51 314 0.0 3.0 0.00 0.00 0.00 79 1021.4
20260510060526 51 8 1.0 7.0 0.00 0.00 0.00 79 1021.5
20260510060022 51 356 2.0 7.0 0.00 0.00 0.00 80 1021.4
20260510055520 51 1 2.0 6.0 0.00 0.00 0.00 79 1021.5
20260510055018 51 310 2.0 6.0 0.00 0.00 0.00 80 1021.6
20260510054517 50 316 1.0 5.0 0.00 0.00 0.00 80 1021.6
20260510054247 50 298 0.0 3.0 0.00 0.00 0.00 81 1021.5
20260510053451 50 8 1.0 5.0 0.00 0.00 0.00 81 1021.5
20260510052929 50 337 1.0 5.0 0.00 0.00 0.00 81 1021.6
20260510052420 50 291 2.0 6.0 0.00 0.00 0.00 81 1021.4
20260510051920 50 331 3.0 6.0 0.00 0.00 0.00 81 1021.4
20260510051409 50 348 2.0 5.0 0.00 0.00 0.00 82 1021.4
20260510050908 50 2 1.0 4.0 0.00 0.00 0.00 83 1021.5
20260510050408 49 8 2.0 6.0 0.00 0.00 0.00 84 1021.5
20260510045904 49 332 2.0 6.0 0.00 0.00 0.00 84 1021.5
20260510045404 49 322 1.0 5.0 0.00 0.00 0.00 85 1021.5
20260510044905 49 338 1.0 4.0 0.00 0.00 0.00 85 1021.4
20260510044404 49 350 2.0 6.0 0.00 0.00 0.00 85 1021.4
20260510044345 49 287 1.0 3.0 0.00 0.00 0.00 86 1021.4
20260510043949 49 342 1.0 6.0 0.00 0.00 0.00 85 1021.3
20260510043111 49 301 1.0 3.0 0.00 0.00 0.00 86 1021.4
20260510042336 49 314 1.0 4.0 0.00 0.00 0.00 85 1021.5
20260510041836 49 285 2.0 4.0 0.00 0.00 0.00 85 1021.6
20260510041323 49 316 1.0 4.0 0.00 0.00 0.00 85 1021.4
20260510040754 49 287 1.0 3.0 0.00 0.00 0.00 85 1021.6
20260510040523 48 280 1.0 4.0 0.00 0.00 0.00 85 1021.6
20260510035751 48 290 1.0 4.0 0.00 0.00 0.00 85 1021.5
20260510035248 48 292 1.0 3.0 0.00 0.00 0.00 85 1021.5
20260510034736 48 339 1.0 4.0 0.00 0.00 0.00 86 1021.5
20260510034220 47 25 1.0 4.0 0.00 0.00 0.00 86 1021.6
20260510033712 47 8 1.0 6.0 0.00 0.00 0.00 87 1021.5
20260510033208 47 8 2.0 6.0 0.00 0.00 0.00 88 1021.7
20260510032644 46 10 1.0 4.0 0.00 0.00 0.00 89 1021.6
20260510032146 46 331 0.0 3.0 0.00 0.00 0.00 89 1021.6
20260510031613 46 343 0.0 3.0 0.00 0.00 0.00 89 1021.7
20260510031104 46 262 0.0 3.0 0.00 0.00 0.00 89 1021.7
20260510030839 46 276 1.0 3.0 0.00 0.00 0.00 89 1021.6
20260510030058 46 291 0.0 3.0 0.00 0.00 0.00 89 1021.6
20260510025546 46 310 1.0 2.0 0.00 0.00 0.00 88 1021.5
20260510025047 46 287 1.0 3.0 0.00 0.00 0.00 88 1021.5
20260510024521 47 274 0.0 3.0 0.00 0.00 0.00 87 1021.4
20260510024021 47 301 0.0 3.0 0.00 0.00 0.00 87 1021.3
20260510023518 47 301 1.0 3.0 0.00 0.00 0.00 86 1021.2
20260510023004 47 260 1.0 3.0 0.00 0.00 0.00 86 1021.3
20260510022437 48 273 1.0 3.0 0.00 0.00 0.00 86 1021.2
20260510021920 48 293 1.0 3.0 0.00 0.00 0.00 86 1021.2
20260510021421 48 31 2.0 3.0 0.00 0.00 0.00 86 1021.3
20260510020920 48 45 2.0 4.0 0.00 0.00 0.00 86 1021.4
20260510020623 48 22 1.0 4.0 0.00 0.00 0.00 87 1021.4
20260510015847 47 40 1.0 3.0 0.00 0.00 0.00 88 1021.3
20260510015335 47 285 1.0 4.0 0.00 0.00 0.00 88 1021.3
20260510014835 47 276 1.0 4.0 0.00 0.00 0.00 88 1021.3
20260510014329 47 274 0.0 3.0 0.00 0.00 0.00 87 1021.1
20260510013801 47 272 0.0 2.0 0.00 0.00 0.00 86 1021.0
20260510013234 47 253 0.0 2.0 0.00 0.00 0.00 84 1021.0
20260510012733 47 231 0.0 2.0 0.00 0.00 0.00 84 1020.9
20260510012226 48 297 0.0 1.0 0.00 0.00 0.00 83 1021.0
20260510011658 48 288 0.0 0.0 0.00 0.00 0.00 82 1020.8
20260510011154 49 274 0.0 0.0 0.00 0.00 0.00 81 1020.8
20260510010921 49 274 0.0 0.0 0.00 0.00 0.00 80 1020.7
20260510010144 49 274 0.0 1.0 0.00 0.00 0.00 80 1020.5
20260510005641 50 274 0.0 2.0 0.00 0.00 0.00 80 1020.6
20260510005114 51 274 0.0 2.0 0.00 0.00 0.00 79 1020.7
20260510004547 51 237 0.0 0.0 0.00 0.00 0.00 78 1020.6
20260510004043 51 237 0.0 0.0 0.00 0.00 0.00 77 1020.7
20260510003535 51 237 0.0 0.0 0.00 0.00 0.00 76 1020.6
20260510003032 52 237 0.0 0.0 0.00 0.00 0.00 76 1020.7
20260510002529 52 272 1.0 3.0 0.00 0.00 0.00 76 1020.7
20260510002003 52 272 2.0 7.0 0.00 0.00 0.00 76 1020.7
20260510001455 52 229 2.0 9.0 0.00 0.00 0.00 76 1020.6
20260510000952 52 301 2.0 9.0 0.00 0.00 0.00 76 1020.4
20260510000427 52 276 2.0 8.0 0.00 0.00 0.00 76 1020.4
20260509235910 53 302 1.0 8.0 0.00 0.00 0.00 76 1020.2
20260509235847 53 317 3.0 10.0 0.00 0.00 0.00 75 1020.1
20260509234840 53 271 3.0 10.0 0.00 0.00 0.00 75 1020.0
20260509234327 53 278 2.0 8.0 0.00 0.00 0.00 74 1019.9
20260509233822 53 229 3.0 6.0 0.00 0.00 0.00 74 1019.7
20260509233254 53 295 3.0 7.0 0.00 0.00 0.00 74 1019.8
20260509232746 53 247 4.0 9.0 0.00 0.00 0.00 74 1019.8
20260509232242 52 265 3.0 9.0 0.00 0.00 0.00 75 1019.8
20260509231715 52 294 2.0 8.0 0.00 0.00 0.00 75 1019.7
20260509231149 51 262 0.0 3.0 0.00 0.00 0.00 76 1019.3
20260509230646 51 242 0.0 2.0 0.00 0.00 0.00 77 1019.2
20260509230145 52 273 0.0 2.0 0.00 0.00 0.00 77 1019.1
20260509225632 52 240 0.0 2.0 0.00 0.00 0.00 76 1019.0
20260509225133 53 253 0.0 2.0 0.00 0.00 0.00 75 1018.9
20260509224837 53 264 0.0 2.0 0.00 0.00 0.00 74 1018.6
20260509224100 53 261 0.0 3.0 0.00 0.00 0.00 72 1018.5
20260509223554 54 298 1.0 3.0 0.00 0.00 0.00 72 1018.4
20260509223258 54 292 1.0 3.0 0.00 0.00 0.00 71 1018.3
20260509222523 55 257 1.0 3.0 0.00 0.00 0.00 72 1018.4
20260509222021 55 3 2.0 4.0 0.00 0.00 0.00 71 1018.2
20260509221510 55 297 2.0 7.0 0.00 0.00 0.00 69 1018.2
20260509221008 56 292 1.0 7.0 0.00 0.00 0.00 69 1018.2
20260509220456 56 301 1.0 6.0 0.00 0.00 0.00 69 1018.1
20260509220226 56 278 2.0 6.0 0.00 0.00 0.00 69 1018.0
20260509215428 56 278 4.0 9.0 0.00 0.00 0.00 70 1018.0
20260509214925 56 276 3.0 8.0 0.00 0.00 0.00 72 1017.8
20260509214416 56 214 3.0 9.0 0.00 0.00 0.00 73 1017.7
20260509214144 56 207 1.0 9.0 0.00 0.00 0.00 71 1017.6
20260509213633 56 330 0.0 5.0 0.00 0.00 0.00 70 1016.9
20260509212903 56 333 1.0 5.0 0.00 0.00 0.00 69 1016.8
20260509212354 57 314 1.0 5.0 0.00 0.00 0.00 68 1016.7
20260509211855 57 356 1.0 5.0 0.00 0.00 0.00 68 1016.6
20260509211353 57 322 2.0 9.0 0.00 0.00 0.00 68 1016.6
20260509210849 57 327 3.0 9.0 0.00 0.00 0.00 68 1016.4
20260509210358 58 332 2.0 9.0 0.00 0.00 0.00 66 1016.5
20260509210350 57 328 3.0 9.0 0.00 0.00 0.00 67 1016.6
20260509205620 58 301 1.0 6.0 0.00 0.00 0.00 66 1016.1
20260509204850 58 316 1.0 6.0 0.00 0.00 0.00 66 1016.1
20260509204553 58 288 1.0 6.0 0.00 0.00 0.00 65 1016.1
20260509203811 59 342 2.0 6.0 0.00 0.00 0.00 65 1016.1
20260509203548 59 2 3.0 7.0 0.00 0.00 0.00 65 1016.2
20260509202744 59 1 3.0 7.0 0.00 0.00 0.00 64 1016.0
20260509202241 60 351 2.0 7.0 0.00 0.00 0.00 63 1016.1
20260509201734 60 357 1.0 6.0 0.00 0.00 0.00 64 1016.1
20260509201206 60 338 1.0 5.0 0.00 0.00 0.00 63 1016.1
20260509200704 61 359 1.0 5.0 0.00 0.00 0.00 62 1016.1
20260509200152 61 340 1.0 5.0 0.00 0.00 0.00 61 1016.1
20260509195649 61 348 1.0 7.0 0.00 0.00 0.00 61 1016.1
20260509195124 61 328 3.0 8.0 0.00 0.00 0.00 61 1016.0
20260509194614 61 16 3.0 8.0 0.00 0.00 0.00 61 1016.1
20260509194048 61 22 3.0 9.0 0.00 0.00 0.00 60 1016.1
20260509193520 61 336 3.0 9.0 0.00 0.00 0.00 61 1016.2
20260509192952 61 0 3.0 7.0 0.00 0.00 0.00 61 1016.1
20260509192715 61 320 3.0 9.0 0.00 0.00 0.00 62 1016.1
20260509191941 61 357 2.0 9.0 0.00 0.00 0.00 60 1016.0
20260509191428 61 352 2.0 8.0 0.00 0.00 0.00 60 1016.1
20260509190928 61 321 2.0 8.0 0.00 0.00 0.00 59 1015.9
20260509190430 61 319 3.0 8.0 0.00 0.00 0.00 58 1016.0
20260509185905 61 14 3.0 8.0 0.00 0.00 0.00 58 1016.0
20260509185334 62 325 3.0 8.0 0.00 0.00 0.00 58 1016.0
20260509185101 62 328 4.0 10.0 0.00 0.00 0.00 58 1016.1
20260509184330 62 4 5.0 10.0 0.00 0.00 0.00 58 1016.1
20260509183802 62 317 5.0 10.0 0.00 0.00 0.00 57 1016.4
20260509183236 62 339 4.0 10.0 0.00 0.00 0.00 57 1016.1
20260509182710 62 331 4.0 10.0 0.00 0.00 0.00 57 1016.0
20260509182144 62 280 3.0 10.0 0.00 0.00 0.00 58 1015.9
20260509181641 62 322 3.0 13.0 0.00 0.00 0.00 57 1015.9
20260509181115 62 351 5.0 13.0 0.00 0.00 0.00 58 1015.7
20260509180550 61 28 7.0 15.0 0.00 0.00 0.00 58 1016.1
20260509180046 61 20 6.0 15.0 0.00 0.00 0.00 57 1016.0
20260509175815 61 326 6.0 11.0 0.00 0.00 0.00 56 1015.9
20260509175041 61 344 6.0 15.0 0.00 0.00 0.00 58 1015.8
20260509174540 61 323 6.0 15.0 0.00 0.00 0.00 57 1015.9
20260509174039 61 351 5.0 11.0 0.00 0.00 0.00 57 1015.9
20260509173747 61 348 4.0 10.0 0.00 0.00 0.00 58 1015.9
20260509172948 61 319 6.0 11.0 0.00 0.00 0.00 58 1016.1
20260509172422 61 36 6.0 14.0 0.00 0.00 0.00 57 1016.0
20260509171857 61 25 5.0 14.0 0.00 0.00 0.00 57 1015.9
20260509171329 61 31 4.0 11.0 0.00 0.00 0.00 59 1015.9
20260509170804 61 303 3.0 11.0 0.00 0.00 0.00 57 1016.2
20260509170508 61 0 2.0 8.0 0.00 0.00 0.00 61 1016.2
20260509165733 61 336 3.0 10.0 0.00 0.00 0.00 58 1016.2
20260509165225 61 333 3.0 10.0 0.00 0.00 0.00 59 1016.1
20260509164721 61 337 4.0 9.0 0.00 0.00 0.00 59 1016.3
20260509164154 61 3 4.0 9.0 0.00 0.00 0.00 59 1016.2
20260509163649 61 8 4.0 11.0 0.00 0.00 0.00 59 1016.4
20260509163150 61 332 4.0 11.0 0.00 0.00 0.00 59 1016.2
20260509162634 60 350 3.0 9.0 0.00 0.00 0.00 59 1016.4
20260509162054 60 332 3.0 9.0 0.00 0.00 0.00 60 1016.3
20260509161524 60 23 4.0 10.0 0.00 0.00 0.00 58 1016.3
20260509161021 60 355 4.0 10.0 0.00 0.00 0.00 58 1016.3
20260509160518 60 8 4.0 12.0 0.00 0.00 0.00 59 1016.5
20260509160012 60 333 4.0 12.0 0.00 0.00 0.00 59 1016.5
20260509155744 60 329 3.0 8.0 0.00 0.00 0.00 59 1016.6
20260509154952 60 0 4.0 8.0 0.00 0.00 0.00 58 1016.5
20260509154438 60 23 4.0 13.0 0.00 0.00 0.00 57 1016.6
20260509153925 60 327 5.0 13.0 0.00 0.00 0.00 57 1016.7
20260509153425 60 308 5.0 9.0 0.00 0.00 0.00 56 1016.8
20260509152924 60 328 4.0 9.0 0.00 0.00 0.00 55 1016.7
20260509152627 60 357 5.0 10.0 0.00 0.00 0.00 57 1016.9
20260509152347 61 347 5.0 10.0 0.00 0.00 0.00 56 1016.9
20260509151345 61 324 3.0 10.0 0.00 0.00 0.00 54 1017.0
20260509150845 61 330 4.0 10.0 0.00 0.00 0.00 55 1016.9
20260509150325 61 358 5.0 10.0 0.00 0.00 0.00 57 1016.9
20260509145824 61 0 4.0 10.0 0.00 0.00 0.00 55 1017.0
20260509145554 61 5 5.0 11.0 0.00 0.00 0.00 56 1017.0
20260509145053 61 34 5.0 11.0 0.00 0.00 0.00 54 1017.1
20260509144318 61 4 4.0 10.0 0.00 0.00 0.00 56 1017.2
20260509143750 61 305 3.0 8.0 0.00 0.00 0.00 58 1017.4
20260509143247 60 13 4.0 10.0 0.00 0.00 0.00 60 1017.6
20260509142720 60 354 5.0 10.0 0.00 0.00 0.00 58 1017.7
20260509142207 60 24 4.0 10.0 0.00 0.00 0.00 59 1017.8
20260509141704 60 330 4.0 11.0 0.00 0.00 0.00 62 1017.8
20260509141139 59 355 4.0 11.0 0.00 0.00 0.00 61 1017.9
20260509140627 59 27 5.0 10.0 0.00 0.00 0.00 64 1017.9
20260509140330 58 345 6.0 12.0 0.00 0.00 0.00 62 1017.7
20260509135531 58 18 6.0 12.0 0.00 0.00 0.00 62 1017.8
20260509135030 59 349 4.0 11.0 0.00 0.00 0.00 63 1017.6
20260509134503 58 343 4.0 11.0 0.00 0.00 0.00 64 1017.6
20260509134003 58 341 4.0 11.0 0.00 0.00 0.00 63 1017.9
20260509133734 58 88 4.0 9.0 0.00 0.00 0.00 64 1017.8
20260509133005 58 18 4.0 7.0 0.00 0.00 0.00 68 1017.5
20260509132438 58 27 4.0 8.0 0.00 0.00 0.00 65 1017.8
20260509131933 58 45 4.0 11.0 0.00 0.00 0.00 66 1017.8
20260509131421 58 353 4.0 11.0 0.00 0.00 0.00 65 1017.9
20260509130856 58 351 3.0 9.0 0.00 0.00 0.00 67 1018.1
20260509130339 57 341 3.0 8.0 0.00 0.00 0.00 68 1017.9
20260509125840 57 308 5.0 9.0 0.00 0.00 0.00 68 1017.9
20260509125340 57 279 4.0 9.0 0.00 0.00 0.00 67 1018.1
20260509124837 57 288 4.0 9.0 0.00 0.00 0.00 71 1018.1
20260509124606 56 328 3.0 9.0 0.00 0.00 0.00 71 1017.8
20260509124059 56 332 1.0 8.0 0.00 0.00 0.00 74 1017.8
20260509123324 55 93 0.0 2.0 0.00 0.00 0.00 84 1017.6
20260509122758 54 128 0.0 2.0 0.00 0.00 0.00 87 1017.4
20260509122252 53 89 1.0 3.0 0.00 0.00 0.00 89 1017.5
20260509122226 52 77 1.0 4.0 0.00 0.00 0.00 91 1017.4
20260509121224 52 107 1.0 4.0 0.00 0.00 0.00 93 1017.4
20260509120652 51 145 1.0 4.0 0.00 0.00 0.00 97 1017.3
20260509120127 50 110 1.0 4.0 0.00 0.00 0.00 97 1017.4
20260509115559 49 143 0.0 2.0 0.00 0.00 0.00 97 1017.4
20260509115055 49 298 0.0 1.0 0.00 0.00 0.00 97 1017.4
20260509114824 49 298 0.0 1.0 0.00 0.00 0.00 98 1017.4
20260509113531 48 104 0.0 1.0 0.00 0.00 0.00 98 1017.1
20260509113039 47 113 0.0 1.0 0.00 0.00 0.00 98 1017.0
20260509113031 48 113 0.0 1.0 0.00 0.00 0.00 98 1017.1
20260509112002 46 118 0.0 0.0 0.00 0.00 0.00 98 1017.2
20260509111455 46 118 0.0 0.0 0.00 0.00 0.00 97 1017.2
20260509110927 45 118 0.0 0.0 0.00 0.00 0.00 97 1017.3
20260509110424 44 118 0.0 0.0 0.00 0.00 0.00 97 1017.3
20260509105917 43 118 0.0 0.0 0.00 0.00 0.00 97 1017.2
20260509105644 43 118 0.0 0.0 0.00 0.00 0.00 97 1017.0
20260509104846 42 118 0.0 0.0 0.00 0.00 0.00 97 1016.8
20260509104344 42 118 0.0 0.0 0.00 0.00 0.00 96 1016.7
20260509103835 41 118 0.0 0.0 0.00 0.00 0.00 96 1016.8
20260509103333 41 160 0.0 0.0 0.00 0.00 0.00 96 1016.8
20260509102806 41 160 0.0 0.0 0.00 0.00 0.00 96 1016.6
20260509102259 40 160 0.0 0.0 0.00 0.00 0.00 95 1016.6
20260509101759 40 160 0.0 0.0 0.00 0.00 0.00 95 1016.4
20260509101259 40 160 0.0 0.0 0.00 0.00 0.00 95 1016.4
20260509100744 40 160 0.0 0.0 0.00 0.00 0.00 95 1016.5
20260509100223 40 160 0.0 0.0 0.00 0.00 0.00 95 1016.4
20260509095723 40 160 0.0 0.0 0.00 0.00 0.00 95 1016.3
20260509095218 41 160 0.0 0.0 0.00 0.00 0.00 95 1016.3
20260509094939 41 50 0.0 0.0 0.00 0.00 0.00 95 1016.2
20260509094209 41 177 0.0 0.0 0.00 0.00 0.00 95 1016.1
20260509093656 41 177 0.0 0.0 0.00 0.00 0.00 96 1016.0
20260509093154 42 155 0.0 0.0 0.00 0.00 0.00 96 1016.0
20260509092651 42 155 0.0 0.0 0.00 0.00 0.00 96 1015.9
20260509092150 42 249 0.0 0.0 0.00 0.00 0.00 96 1015.9
20260509091648 42 249 0.0 0.0 0.00 0.00 0.00 95 1016.0
20260509091143 41 241 0.0 0.0 0.00 0.00 0.00 95 1015.8
20260509090643 41 241 0.0 0.0 0.00 0.00 0.00 95 1015.6
20260509090113 41 230 0.0 0.0 0.00 0.00 0.00 95 1015.5
20260509085827 41 230 0.0 0.0 0.00 0.00 0.00 95 1015.3
20260509085044 42 230 0.0 0.0 0.00 0.00 0.00 95 1015.2
20260509084516 42 230 0.0 0.0 0.00 0.00 0.00 95 1015.2
20260509084009 42 187 0.0 0.0 0.00 0.00 0.00 95 1015.1
20260509083743 42 187 0.0 0.0 0.00 0.00 0.00 95 1015.1
20260509082943 42 187 0.0 0.0 0.00 0.00 0.00 95 1015.1
20260509082432 42 196 0.0 0.0 0.00 0.00 0.00 95 1015.1
20260509081922 42 266 0.0 0.0 0.00 0.00 0.00 95 1015.1
20260509081415 42 266 0.0 0.0 0.00 0.00 0.00 95 1015.1
20260509080905 42 266 0.0 0.0 0.00 0.00 0.00 95 1015.1
20260509080340 43 266 0.0 0.0 0.00 0.00 0.00 95 1015.2
20260509075840 43 266 0.0 0.0 0.00 0.00 0.00 95 1015.1
20260509075336 42 266 0.0 0.0 0.00 0.00 0.00 95 1015.1
20260509074825 42 266 0.0 0.0 0.00 0.00 0.00 94 1015.1
20260509074311 42 289 0.0 0.0 0.00 0.00 0.00 94 1014.9
20260509074038 43 289 0.0 0.0 0.00 0.00 0.00 94 1014.9
20260509073524 43 289 0.0 0.0 0.00 0.00 0.00 94 1014.9
20260509072739 43 289 0.0 0.0 0.00 0.00 0.00 94 1015.0
20260509072235 43 258 0.0 0.0 0.00 0.00 0.00 94 1015.1
20260509071735 43 258 0.0 0.0 0.00 0.00 0.00 94 1015.1
20260509071237 43 281 0.0 0.0 0.00 0.00 0.00 93 1015.0
20260509070723 43 246 0.0 0.0 0.00 0.00 0.00 93 1015.1
20260509070220 43 246 0.0 0.0 0.00 0.00 0.00 93 1015.1
20260509065938 43 246 0.0 0.0 0.00 0.00 0.00 93 1015.1
20260509065155 44 246 0.0 0.0 0.00 0.00 0.00 93 1015.1
20260509064627 44 246 0.0 0.0 0.00 0.00 0.00 93 1015.1
20260509064124 44 246 0.0 0.0 0.00 0.00 0.00 93 1015.0